Whitefield, NH

10:27 AM EDT on April 30, 2017 (GMT -0400)
Mount Washington Regional

Weather History for KHIE - December, 2013

Change the Weather History Date:

Sunday, December 8, 2013

  Actual Average Record
Temperature  
Mean Temperature 18 °F -  
Max Temperature 25 °F 32 °F 39 °F (2004)
Min Temperature 10 °F 14 °F -11 °F (2003)
Degree Days  
Heating Degree Days 48    
Moisture  
Dew Point 8 °F    
Average Humidity 64    
Maximum Humidity 80    
Minimum Humidity 43    
Precipitation  
Precipitation 0.00 in - - ()
Sea Level Pressure  
Sea Level Pressure 30.53 in    
Wind  
Wind Speed 3 mph (WSW)    
Max Wind Speed 7 mph    
Max Gust Speed -    
Visibility 10 miles    
Events      
Averages and records for this station are not official NWS values.
T = Trace of Precipitation, MM = Missing Value Source: NWS Daily Summary

Daily Weather History Graph

Daily Weather History Graph

Search for Another Location

Airport or City:

Trip Planner

Search our weather history database for the weather conditions in past years. The results will help you decide how hot, cold, wet, or windy it might be!

Date:

Astronomy

Dec. 08, 2013 Rise Set
Actual Time 7:09 AM EST 4:06 PM EST
Civil Twilight 6:36 AM EST 4:39 PM EST
Nautical Twilight 5:59 AM EST 5:16 PM EST
Astronomical Twilight 5:24 AM EST 5:51 PM EST
Moon 11:17 AM EST (12/8) 11:04 PM EST (12/8)
Length of Visible Light 10h 03m
Length of Day
8h 57m
Waxing Crescent, 40% of the Moon is Illuminated
Dec 8
Waxing Crescent
Dec 9
First Quarter
Dec 17
Full
Dec 25
Last Quarter
Jan 1
New

Hourly Weather History & Observations

Time (EST) Temp. Windchill Dew Point Humidity Pressure Visibility Wind Dir Wind Speed Gust Speed Precip Events Conditions
12:52 AM 16.0 °F 7.4 °F 8.1 °F 71% 30.45 in 10.0 mi SSW 5.8 mph - N/A   Clear
1:52 AM 14.0 °F - 8.1 °F 77% 30.46 in 10.0 mi Calm Calm - N/A   Clear
2:52 AM 16.0 °F 8.8 °F 8.1 °F 71% 30.47 in 10.0 mi SW 4.6 mph - N/A   Clear
3:52 AM 18.0 °F 9.8 °F 6.1 °F 60% 30.48 in 10.0 mi WSW 5.8 mph - N/A   Clear
4:52 AM 15.1 °F 7.7 °F 6.1 °F 68% 30.50 in 10.0 mi SW 4.6 mph - N/A   Clear
5:52 AM 15.1 °F 9.4 °F 5.0 °F 64% 30.51 in 10.0 mi SW 3.5 mph - N/A   Partly Cloudy
6:52 AM 10.9 °F - 5.0 °F 77% 30.54 in 10.0 mi Calm Calm - N/A   Clear
7:52 AM 14.0 °F 8.2 °F 7.0 °F 74% 30.57 in 10.0 mi SW 3.5 mph - N/A   Overcast
8:52 AM 18.0 °F 12.7 °F 7.0 °F 62% 30.56 in 10.0 mi Variable 3.5 mph - N/A   Partly Cloudy
9:52 AM 21.0 °F 14.6 °F 5.0 °F 50% 30.58 in 10.0 mi Variable 4.6 mph - N/A   Clear
10:52 AM 21.9 °F - 5.0 °F 48% 30.58 in 10.0 mi Calm Calm - N/A   Clear
11:52 AM 23.0 °F 18.4 °F 6.1 °F 48% 30.54 in 10.0 mi West 3.5 mph - N/A   Partly Cloudy
12:52 PM 24.1 °F 17.0 °F 6.1 °F 46% 30.54 in 10.0 mi West 5.8 mph - N/A   Mostly Cloudy
1:52 PM 24.1 °F 16.0 °F 6.1 °F 46% 30.53 in 10.0 mi Variable 6.9 mph - N/A   Scattered Clouds
2:52 PM 25.0 °F 18.1 °F 5.0 °F 43% 30.51 in 10.0 mi West 5.8 mph - N/A   Partly Cloudy
3:52 PM 23.0 °F - 5.0 °F 46% 30.54 in 10.0 mi Calm Calm - N/A   Clear
4:52 PM 19.0 °F - 9.0 °F 65% 30.55 in 10.0 mi Calm Calm - N/A   Clear
5:52 PM 17.1 °F - 10.0 °F 74% 30.56 in 10.0 mi Calm Calm - N/A   Clear
6:52 PM 15.1 °F - 10.0 °F 80% 30.55 in 10.0 mi Calm Calm - N/A   Partly Cloudy
7:52 PM 17.1 °F - 10.0 °F 74% 30.54 in 10.0 mi Calm Calm - N/A   Scattered Clouds
8:52 PM 19.0 °F - 10.9 °F 71% 30.53 in 10.0 mi Calm Calm - N/A   Overcast
9:52 PM 19.0 °F - 12.0 °F 74% 30.54 in 10.0 mi Calm Calm - N/A   Overcast
10:52 PM 19.9 °F - 12.9 °F 74% 30.52 in 10.0 mi Calm Calm - N/A   Overcast
11:52 PM 19.9 °F - 10.9 °F 68% 30.49 in 10.0 mi Calm Calm - N/A   Overcast